Theta_e
330 320 312 312 302 300 295 297 300 302 302 307 310 309 309 312 309 301 327 335 339 340 343 344 344 344 343 342 342 341 341 341 337 339 341 342 340 338 336 336 336 334 334 334 334 336 336 336 336
321 318 313 307 299 293 295 301 302 305 307 313 313 312 312 310 320 322 326 337 340 341 342 341 343 344 342 342 342 341 341 340 336 342 339 338 341 338 336 335 334 334 334 333 332 334 335 334 334
317 314 308 302 296 294 296 303 304 307 310 309 308 316 314 315 320 325 329 338 341 341 341 340 342 343 341 341 342 341 340 340 336 337 339 339 341 338 336 334 335 333 332 332 331 333 333 332 331
311 310 306 299 296 298 299 306 307 307 309 312 311 310 316 324 323 328 336 339 339 339 339 340 343 342 340 341 340 340 338 336 339 336 339 339 342 338 336 334 335 334 332 332 332 331 331 330 331
310 305 298 296 297 299 300 308 308 306 308 310 310 309 311 325 328 332 335 337 336 336 338 339 342 342 342 341 339 339 342 339 339 338 337 340 340 337 336 335 334 332 331 331 331 330 329 329 330
305 304 296 293 297 301 301 309 307 306 307 308 310 312 313 325 327 329 333 333 337 337 338 338 336 339 340 340 339 339 340 341 340 339 338 340 340 337 335 334 332 332 333 331 331 329 328 328 329
302 300 296 294 296 299 301 307 305 306 306 307 313 308 313 321 327 330 332 333 335 338 337 337 336 336 334 336 336 338 339 339 338 338 337 336 335 338 337 335 335 333 332 331 330 329 327 326 327
303 300 296 295 295 297 303 304 306 306 307 311 315 306 308 322 328 329 331 332 333 335 336 335 335 334 334 333 331 333 335 336 335 334 332 330 330 332 331 329 335 334 333 331 330 329 328 325 325
303 296 294 297 297 299 303 303 306 309 309 311 314 312 316 325 327 325 324 328 334 335 334 335 334 333 332 332 329 329 331 331 331 329 326 324 322 324 324 324 331 335 335 332 331 330 329 328 326
300 295 297 300 299 298 300 301 301 304 306 308 310 317 321 325 323 322 323 324 325 330 331 334 334 333 332 334 329 328 329 328 327 324 323 322 320 320 321 320 324 330 330 332 331 331 330 325 317
299 296 300 301 301 301 301 300 301 302 300 305 307 314 320 319 321 322 322 323 325 328 330 332 333 333 332 332 328 326 326 324 324 322 320 320 320 318 319 318 319 321 323 323 326 323 321 320 318
298 302 302 305 303 302 300 302 300 300 303 306 306 316 320 320 321 322 323 322 322 323 328 330 332 332 331 332 329 327 325 323 322 321 320 318 317 316 316 317 318 317 319 318 318 318 318 317 317
301 302 304 305 303 302 303 301 301 301 305 305 307 319 320 321 322 323 323 324 322 323 324 328 330 330 331 331 330 328 326 325 324 321 320 319 317 316 316 317 317 317 317 317 315 315 316 315 316
302 303 304 304 304 303 301 300 302 303 303 302 310 315 318 320 322 321 321 323 322 324 324 324 327 330 330 330 330 329 328 326 324 323 322 320 319 318 317 317 317 317 317 317 316 316 316 316 317
304 300 301 301 303 303 302 299 298 304 303 303 303 303 315 319 320 321 324 324 325 325 325 324 323 327 328 330 329 329 329 327 325 323 322 322 320 319 319 318 319 319 317 317 316 315 314 315 316
299 298 293 299 302 303 302 295 301 305 302 303 303 302 302 309 320 322 324 324 325 326 324 326 326 323 326 329 330 329 329 328 327 325 324 323 322 321 320 319 319 319 317 316 315 315 314 314 314
296 292 291 296 301 300 299 294 301 303 302 301 301 302 303 302 306 318 323 323 325 325 326 325 326 324 323 327 329 329 329 328 328 326 325 324 323 322 321 320 320 317 317 317 316 314 315 313 314
294 290 293 293 297 298 297 297 299 301 301 300 300 300 302 303 304 306 313 323 324 325 325 326 326 326 324 325 327 327 327 327 328 327 326 324 323 322 321 321 321 319 318 316 315 315 314 315 315
297 292 291 291 298 296 295 295 298 301 300 300 301 301 302 304 307 307 305 312 321 323 324 325 325 326 325 322 322 324 324 325 326 327 327 326 324 323 322 322 319 318 318 318 316 315 314 313 313
297 295 294 296 299 299 295 295 299 301 301 303 303 304 305 305 304 306 307 307 312 320 323 324 325 326 325 325 324 325 325 325 327 327 327 327 325 324 322 322 321 318 317 316 316 315 314 314 313
295 293 294 294 296 296 295 293 296 299 301 303 304 305 306 306 307 308 307 307 307 313 319 323 325 325 326 326 326 324 322 320 322 324 325 326 326 324 323 323 322 320 318 317 316 315 314 313 311
291 296 295 293 293 287 292 284 291 293 294 297 299 301 303 304 306 308 307 306 304 307 314 320 323 324 325 326 325 323 323 321 324 325 325 325 325 325 324 323 322 321 319 319 318 316 315 314 312
293 296 294 293 290 291 292 287 286 290 292 295 297 298 298 301 303 302 303 305 306 304 308 317 320 322 323 323 325 324 323 324 325 324 324 324 324 324 324 323 322 321 320 319 319 316 315 316 314
297 293 292 294 292 284 288 288 287 290 292 292 294 296 296 296 297 298 299 301 300 301 302 307 313 317 319 321 323 324 323 323 323 322 322 323 324 323 324 323 322 322 321 320 319 318 316 315 316
296 291 284 282 282 281 286 286 289 293 293 295 295 293 293 294 295 296 297 297 298 298 299 301 304 306 310 317 320 322 323 323 323 323 323 323 323 322 322 322 321 321 322 321 321 320 319 317 317
293 292 284 277 278 279 284 283 288 295 298 300 296 296 294 294 295 296 296 296 297 298 299 299 300 300 301 302 305 311 319 323 324 324 324 324 324 324 325 323 323 322 322 322 321 320 320 320 319
290 289 294 284 278 278 282 285 291 293 292 292 294 294 293 294 295 295 295 295 297 298 298 298 299 300 300 301 302 302 305 310 316 321 324 325 325 325 324 323 323 323 322 321 322 320 320 320 320
296 297 287 287 279 278 280 280 285 287 290 291 291 292 292 294 295 294 294 294 296 297 297 298 299 298 298 300 300 301 302 304 307 311 314 319 323 324 323 323 322 323 323 323 322 322 321 320 320
292 288 288 289 285 279 275 279 286 289 291 291 292 292 293 293 293 292 292 293 294 295 295 297 297 296 295 297 299 299 300 301 303 305 307 309 313 318 322 323 322 323 323 324 323 322 322 320 320
293 290 289 283 283 284 282 282 290 289 290 292 291 295 295 292 291 291 291 292 292 292 294 294 295 294 294 295 296 297 298 298 298 299 301 304 306 311 315 318 322 323 323 324 323 322 322 321 320
Wind_Speed
9 8 2 5 6 6 1 1 1 2 1 2 2 3 5 3 3 4 4 6 8 9 7 8 12 12 12 12 11 11 10 9 10 8 14 14 15 14 12 12 11 11 12 12 12 12 13 8 8
7 6 5 3 6 4 4 2 5 2 4 6 4 3 4 0 1 2 4 5 10 10 7 8 11 11 12 12 11 10 10 9 9 11 13 12 13 14 13 11 10 11 11 11 11 10 9 8 5
4 4 5 5 4 4 4 3 4 2 2 4 3 4 3 2 1 7 3 10 8 8 8 7 12 12 13 11 11 11 11 11 11 7 11 11 14 14 14 11 10 9 10 9 9 10 8 6 6
6 6 5 6 2 1 3 5 3 3 1 2 4 4 2 2 3 6 11 11 9 7 7 10 12 13 13 10 10 11 14 12 11 8 9 9 15 15 14 11 8 9 9 8 9 8 7 6 5
5 4 5 4 4 3 2 3 5 3 1 2 3 3 1 4 2 8 10 10 10 7 6 8 12 12 12 11 9 7 11 12 10 12 9 13 12 12 13 11 10 9 8 9 7 7 6 5 5
5 3 5 1 4 5 2 4 2 2 0 1 4 5 3 4 6 6 8 7 8 11 8 7 9 10 11 11 10 7 6 10 11 12 9 11 13 13 12 11 9 9 9 7 7 6 6 5 5
6 4 3 2 3 4 1 6 3 4 1 2 6 3 3 3 5 7 7 6 6 8 9 6 7 8 9 9 9 8 7 7 6 6 7 3 10 10 8 11 10 9 8 7 5 4 4 5 5
5 5 3 1 2 4 4 1 2 2 4 3 4 3 4 6 7 6 6 6 6 6 8 8 7 6 6 6 9 8 7 8 7 7 6 3 7 7 7 8 8 13 11 8 6 4 3 2 3
3 5 2 3 2 2 5 4 4 1 2 3 1 1 3 7 8 6 4 4 7 6 8 7 8 7 6 6 6 9 9 7 7 7 8 6 2 1 5 5 6 7 10 8 7 6 5 3 1
4 3 8 3 2 2 1 2 2 3 3 3 2 1 3 7 7 9 9 10 6 11 8 9 8 8 6 6 5 5 6 5 5 5 6 4 4 3 4 3 8 6 7 7 8 7 6 4 2
2 4 5 3 2 1 1 0 2 2 3 6 4 4 4 4 7 9 8 8 11 8 7 9 8 8 8 6 3 2 2 3 3 6 5 5 4 4 3 2 2 3 5 2 3 3 3 4 3
1 3 3 2 1 0 1 1 2 3 6 3 5 4 7 9 11 12 12 10 7 7 10 10 10 8 9 5 5 4 4 3 3 4 6 4 3 4 4 3 4 4 3 4 4 3 4 5 5
3 3 2 4 2 4 2 5 5 6 9 7 4 6 11 11 12 9 9 7 7 10 10 11 10 10 9 9 7 6 6 5 6 5 6 4 4 4 4 4 3 3 3 3 4 4 4 5 5
1 3 5 3 4 3 4 4 6 6 4 4 2 7 7 10 14 6 8 12 12 11 12 11 12 11 10 10 10 8 7 7 6 6 7 8 6 5 5 4 5 4 4 4 4 5 5 5 4
1 4 6 3 3 5 5 6 8 10 3 7 9 8 9 13 7 14 15 15 15 14 11 12 13 12 12 13 10 8 8 8 8 7 9 10 9 7 8 6 6 7 5 6 4 5 4 4 4
3 3 4 2 4 5 6 9 3 7 5 10 11 9 8 11 15 15 13 13 12 11 13 13 11 13 14 13 11 9 8 8 8 8 8 11 11 10 9 7 7 6 5 6 4 5 5 5 4
3 6 5 4 3 3 5 3 5 6 7 9 8 9 10 11 9 14 15 15 14 14 13 13 13 13 15 13 11 11 11 10 9 8 8 11 11 11 10 8 8 7 6 6 6 6 6 5 6
10 5 4 6 2 2 5 12 8 8 7 9 10 9 11 11 15 13 14 15 14 12 13 13 11 15 11 9 8 7 7 8 8 9 9 11 10 11 10 8 9 8 6 6 5 8 5 6 7
2 3 5 1 0 2 5 11 13 10 9 11 12 11 11 16 14 9 9 11 11 11 13 15 12 15 10 8 8 9 10 8 8 9 11 12 11 12 12 9 8 8 9 10 9 7 9 7 3
6 8 7 1 1 1 6 20 15 12 18 17 16 17 19 16 12 12 11 9 10 15 15 14 16 14 12 10 10 9 7 8 9 8 10 12 12 12 12 12 10 10 8 9 9 9 6 5 6
13 17 10 7 2 4 3 21 22 17 16 19 16 17 20 21 21 16 12 11 8 11 13 13 15 15 14 17 8 5 1 1 3 8 9 11 12 13 13 13 12 10 10 9 11 10 12 9 4
15 7 7 8 4 10 7 17 15 10 10 10 12 15 17 16 17 15 11 9 8 9 8 9 11 12 13 12 11 13 12 12 12 11 7 8 11 13 13 14 13 12 9 12 11 10 12 10 10
10 8 11 7 6 3 14 9 5 3 19 18 13 12 10 16 13 9 8 8 7 5 7 9 10 8 9 9 12 10 11 10 7 5 8 8 8 12 13 13 14 13 10 12 12 10 11 11 11
3 5 2 3 5 11 27 10 20 15 17 6 4 7 8 6 2 4 6 8 6 7 7 3 3 4 3 5 9 12 12 12 8 7 7 8 7 7 12 13 13 13 13 13 11 13 13 13 12
8 6 4 7 8 10 5 10 24 20 8 12 8 2 4 5 6 8 10 9 8 9 9 9 9 8 6 5 5 7 10 11 12 10 9 10 7 7 10 13 13 12 14 14 12 12 14 13 14
14 17 8 9 5 4 1 11 15 14 18 18 9 7 4 4 6 8 8 8 8 8 9 9 8 8 8 8 7 6 7 6 7 9 9 9 9 9 11 10 13 15 15 13 13 11 13 14 14
5 15 14 3 2 1 5 8 11 9 8 1 9 7 6 5 6 9 9 10 11 13 13 13 13 13 13 10 8 7 6 6 8 11 9 8 10 9 11 10 12 15 15 15 15 13 14 15 14
8 4 9 6 10 8 6 7 10 5 5 6 7 8 5 5 8 9 11 12 11 12 11 13 12 13 11 12 10 8 8 8 7 6 9 11 10 9 10 11 12 14 15 15 16 14 15 16 13
6 6 5 4 6 5 2 7 4 9 8 14 10 8 7 8 10 10 10 11 11 12 12 12 14 14 14 13 12 12 10 10 10 9 9 9 11 11 11 10 12 14 15 15 16 16 16 17 16
2 9 8 2 1 1 1 6 10 9 2 4 6 4 7 12 11 10 10 11 12 12 11 12 12 13 13 11 11 12 12 13 12 12 12 12 11 11 11 12 11 13 14 14 16 16 14 17 17
Wind_Direction
324 321 57 39 56 64 8 231 258 132 89 324 342 133 147 72 150 206 327 153 133 139 142 139 141 144 142 140 139 142 143 147 148 146 133 121 130 122 116 115 119 112 104 101 94 90 93 67 36
322 341 42 76 79 71 282 271 181 200 136 118 84 80 50 92 158 111 105 170 151 141 139 135 136 144 148 149 149 150 146 142 148 142 133 133 133 123 121 121 121 112 101 103 104 100 81 54 24
352 35 73 79 97 150 189 208 203 167 150 172 90 51 140 208 171 175 195 146 143 138 135 142 142 152 154 158 157 159 149 149 154 163 137 137 147 130 125 133 128 121 112 107 103 97 83 55 69
5 9 33 76 358 259 222 183 213 141 325 75 128 73 334 246 182 190 144 142 141 138 136 150 154 160 162 164 164 166 160 156 160 169 149 140 142 139 135 140 134 130 116 109 100 95 88 79 63
33 50 47 64 320 284 311 162 168 177 199 147 151 177 186 318 37 135 140 147 147 143 145 156 163 165 166 164 166 175 183 166 165 164 171 151 149 142 140 146 150 144 135 117 112 101 96 90 78
37 86 52 46 303 303 314 138 165 227 123 132 71 129 210 304 125 155 146 152 162 153 158 158 170 174 169 168 170 181 166 171 166 165 186 144 150 146 146 150 160 150 135 141 132 117 107 100 84
102 77 170 209 280 315 222 131 189 202 148 246 148 123 304 285 154 147 145 138 161 157 160 165 167 179 179 176 177 181 190 172 174 161 162 192 160 149 163 160 165 156 155 154 149 137 113 102 92
99 91 120 265 292 283 334 124 104 155 234 103 142 197 250 220 157 138 131 148 163 167 174 176 174 174 179 186 181 180 176 177 174 160 154 205 201 153 154 179 191 172 169 173 174 174 174 148 121
113 66 156 199 213 266 337 33 5 321 129 71 360 157 301 154 137 126 138 177 184 184 185 183 182 180 179 187 195 185 184 185 182 171 171 190 199 253 181 190 197 167 160 177 193 208 223 229 289
82 116 208 219 194 181 18 71 310 25 354 317 328 18 32 124 158 164 178 196 202 194 190 195 193 186 186 189 190 197 187 179 185 181 181 175 197 195 179 208 222 208 170 181 204 217 232 248 259
153 199 216 241 227 247 64 62 345 94 268 228 234 226 144 166 182 193 202 202 208 201 194 190 198 191 187 197 178 193 192 185 184 193 188 185 183 196 195 202 248 241 189 205 220 240 242 249 258
285 224 222 262 242 281 241 333 313 192 233 153 265 204 170 188 204 207 212 209 194 200 201 193 193 197 196 188 185 188 193 194 191 195 198 182 190 202 203 202 210 207 193 205 220 233 247 255 255
200 275 208 295 291 283 320 233 230 241 257 280 277 174 194 203 213 221 225 221 213 209 203 201 192 193 200 200 189 189 199 200 202 190 193 183 191 197 200 215 211 213 199 204 216 228 239 245 251
262 291 280 272 248 252 227 258 146 258 243 234 209 221 224 219 219 219 223 228 219 220 210 198 201 200 189 201 205 198 197 201 202 203 202 196 196 195 197 206 211 211 201 209 210 218 224 237 233
215 314 316 221 225 244 167 288 226 249 285 275 271 256 234 230 220 224 227 227 222 221 216 205 201 200 198 197 201 207 205 200 203 205 201 202 200 202 200 204 213 220 204 207 213 234 237 248 246
196 172 250 245 211 267 130 257 270 289 316 280 280 276 259 252 230 236 233 231 226 225 213 214 208 201 204 205 196 206 208 204 206 207 204 204 204 200 204 205 212 208 204 204 204 217 232 233 229
224 240 222 286 33 276 183 247 230 330 326 294 279 283 284 269 245 238 232 227 226 220 220 217 211 210 207 207 202 204 213 210 207 204 206 208 208 204 204 210 213 195 207 207 211 223 218 222 232
224 238 241 205 298 339 276 270 267 281 284 275 283 277 280 274 261 248 240 231 226 221 219 221 209 219 212 210 215 212 204 222 217 210 209 206 210 208 205 215 212 199 207 214 211 222 211 223 229
42 257 234 83 292 347 272 280 278 287 284 276 277 277 269 266 269 257 238 233 226 220 215 217 208 216 200 195 207 221 219 205 227 221 213 209 207 205 207 218 212 202 210 215 209 216 224 233 201
228 257 253 274 275 222 309 289 286 280 277 271 265 265 260 263 252 257 250 228 219 232 226 217 215 209 203 207 213 214 209 224 213 217 220 213 206 206 211 217 217 209 218 218 210 210 224 237 179
231 235 242 254 213 269 9 278 281 273 248 266 263 257 257 251 255 249 251 243 226 223 225 221 218 211 204 210 211 205 216 236 204 220 221 220 210 208 211 218 220 211 211 222 217 210 212 231 197
238 174 183 202 192 254 149 280 274 293 269 257 270 261 260 255 256 256 245 253 233 237 233 224 222 221 220 207 202 205 212 223 228 229 227 222 208 216 213 218 216 217 214 223 217 209 216 216 229
244 164 197 208 231 318 239 253 285 314 285 278 260 271 272 260 249 248 249 257 265 287 244 216 207 206 210 195 213 211 225 236 238 229 232 221 210 214 215 214 218 220 220 225 222 208 208 215 227
121 97 132 177 222 239 249 216 273 259 251 271 265 314 322 319 75 89 62 54 30 23 20 7 351 304 278 211 212 219 223 231 235 228 227 232 221 211 218 216 217 223 226 227 221 218 213 214 222
174 150 235 230 202 242 245 192 242 263 252 248 263 342 324 10 63 68 61 48 34 26 20 28 38 44 15 335 292 255 240 237 236 233 230 238 228 222 220 215 215 222 226 228 225 221 222 217 219
198 202 213 231 220 237 52 213 245 238 263 240 227 178 294 81 69 66 61 58 47 38 33 28 40 34 36 37 7 340 307 282 264 251 250 247 239 236 232 218 219 222 228 227 225 224 227 226 227
169 223 230 267 93 174 219 276 293 252 268 269 185 149 183 108 74 63 46 50 48 46 42 39 31 30 22 25 18 3 352 333 312 300 283 261 253 246 242 222 219 224 225 225 225 228 229 229 227
204 352 211 202 220 226 241 263 245 331 245 171 157 158 165 103 67 54 54 47 44 42 40 39 37 30 19 16 12 14 357 345 342 332 322 310 294 269 250 238 230 230 228 226 226 229 229 232 229
175 207 255 243 189 175 224 253 252 272 197 177 170 148 145 78 65 59 48 41 41 37 33 34 32 22 18 11 8 6 4 6 4 357 345 334 321 310 288 262 249 241 239 235 236 235 231 228 230
278 206 184 244 186 222 219 261 348 339 294 114 111 73 46 66 63 53 44 42 40 32 27 27 23 19 9 4 5 7 2 1 3 358 348 342 334 323 311 303 280 261 253 248 244 241 237 234 235